Location: The Stocker AstroScience Center
(25.7579°N, 80.3725°W)
Time: 11:40:42
(UTC-04:00)

ISS - All Passes

Search period start: 06 July 2015 00:00
Search period end: 16 July 2015 00:00
Orbit: 398 x 403 km, 51.6° (Epoch: 06 July)

Date Brightness Start Highest point End Pass type
(mag) Time Alt. Az. Time Alt. Az. Time Alt. Az.
06 Jul - 05:59:55 10° SSE 06:01:03 12° SE 06:02:20 10° ESE visible
06 Jul - 07:34:17 10° WSW 07:37:14 32° NW 07:40:11 10° NNE daylight
06 Jul - 15:43:52 10° NW 15:47:03 62° NE 15:50:15 10° SE daylight
07 Jul - 06:40:24 10° SW 06:43:38 85° NW 06:46:52 10° NE daylight
07 Jul - 14:50:41 10° NNW 14:53:24 25° NE 14:56:09 10° ESE daylight
07 Jul - 16:27:39 10° W 16:29:39 15° SW 16:31:32 10° SSW daylight
08 Jul - 05:47:07 10° SSW 05:50:04 34° SE 05:53:04 10° ENE visible
08 Jul - 07:24:55 10° WNW 07:26:35 13° NW 07:28:09 10° N daylight
08 Jul - 13:58:15 10° NNE 13:59:35 12° NE 14:01:01 10° ENE daylight
08 Jul - 15:33:06 10° WNW 15:36:07 37° SW 15:39:07 10° SSE daylight
09 Jul - 04:54:49 10° SSE 04:56:32 14° SE 04:58:22 10° E visible
09 Jul - 06:29:55 10° WSW 06:32:45 27° NW 06:35:33 10° NNE daylight
09 Jul - 14:39:17 10° NW 14:42:31 77° NE 14:45:44 10° SE daylight
10 Jul - 05:35:48 10° SW 05:39:01 69° NW 05:42:15 10° NE visible
10 Jul - 13:45:56 10° NNW 13:48:47 29° NE 13:51:40 10° ESE daylight
10 Jul - 15:23:24 10° W 15:24:59 13° SW 15:26:24 10° SSW daylight
11 Jul - 04:42:18 10° SSW 04:45:21 41° SE 04:48:25 10° ENE visible
11 Jul - 06:20:42 10° WNW 06:21:55 11° NW 06:22:59 10° NNW daylight
11 Jul - 12:53:09 10° N 12:54:53 14° NE 12:56:43 10° ENE daylight
11 Jul - 14:28:26 10° WNW 14:31:21 31° SW 14:34:13 10° SSE daylight
12 Jul - 03:49:36 10° SSE 03:51:42 16° SE 03:53:53 10° E visible
12 Jul - 05:25:16 10° W 05:27:57 23° NW 05:30:36 10° NNE visible
12 Jul - 13:34:26 10° NW 13:37:39 87° SW 13:40:52 10° SE daylight
13 Jul - 04:30:55 10° SW 04:34:05 56° NW 04:37:17 10° NNE visible
13 Jul - 12:40:52 10° NNW 12:43:51 34° NE 12:46:50 10° ESE daylight
13 Jul - 14:19:09 10° WSW 14:20:00 11° SW 14:20:41 10° SW daylight
14 Jul - 03:37:11 10° SSW 03:40:19 50° SE 03:43:28 10° NE visible
14 Jul - 11:47:50 10° N 11:49:52 16° NE 11:51:59 10° E daylight
14 Jul - 13:23:30 10° WNW 13:26:16 26° SW 13:28:59 10° S daylight
15 Jul - 02:44:11 10° S 02:46:33 19° SE 02:48:59 10° ENE night (unlit)
15 Jul - 04:20:19 10° W 04:22:51 20° NW 04:25:20 10° N visible
15 Jul - 12:29:16 10° NW 12:32:29 72° SW 12:35:41 10° SE daylight
